Location: Burgerwiesen
(48.6500°N, 15.6167°E)
Time: 17:48:21
(UTC+00:00)

Cosmos 1954 Rocket - Pass Details

Date: 09 April 2020
Orbit: 752 x 781 km, 74.1° (Epoch: 28 May)

Event Time Altitude Azimuth Distance (km) Brightness Sun altitude
Rises 19:28:37 0° 205° (SSW) 3,226 7.1 -17.1°
Reaches altitude 10° 19:30:59 10° 207° (SSW) 2,300 6.4 -17.4°
Maximum altitude 19:36:12 78° 293° (WNW) 784 4.1 -18.1°
Drops below altitude 10° 19:41:26 10° 21° (NNE) 2,298 6.7 -18.8°
Sets 19:43:48 0° 23° (NNE) 3,224 7.4 -19.1°
